Vertical_Velocity
-2 12 -9 15 11 18 15 -10 -31 -3 -1 -5 -6 -4 -0 3 2 4 1 4 0 -2 2 0 3 6 6 3 2 4 2 1 -0 -0 2 4 3 2 0 -3 -1 2 1
3 13 5 -6 1 12 55 63 73 7 -4 6 10 9 11 7 7 7 9 8 9 5 4 2 5 -0 2 2 2 3 3 3 1 1 0 -6 4 2 2 3 2 2 1
-0 -7 -3 -7 -17 -6 -4 -21 16 2 9 6 16 3 7 5 2 8 3 8 7 -27 5 4 5 5 -4 7 2 1 1 4 4 -1 -6 -4 8 1 -6 -9 -8 2 1
2 7 5 0 -5 -6 -2 -5 -37 11 -10 -17 -19 6 30 6 14 12 6 -19 7 -4 7 0 4 6 9 12 2 0 3 4 -3 -20 2 -8 -9 0 0 6 5 4 0
5 5 2 7 6 8 9 -7 -34 15 88 20 -29 -24 -27 -9 -4 -37 -22 -1 4 16 -2 5 4 13 18 17 8 -25 6 2 2 3 3 1 -1 12 10 10 10 2 2
5 9 -0 -2 -0 1 11 -11 -4 -8 -3 -5 17 30 14 11 32 4 -0 -4 5 1 13 8 -40 -12 9 5 5 0 -7 9 -2 -0 -6 3 -2 6 -0 -0 -2 6 8
3 9 6 3 2 -1 2 -2 5 0 23 8 -5 27 15 24 -11 14 25 19 12 9 2 -1 5 3 2 -3 -1 -4 0 1 -2 -6 3 -1 6 1 3 5 2 -3 2
19 12 5 0 5 -0 8 16 11 23 10 9 15 5 -23 9 5 5 11 -4 4 4 2 -0 -2 -0 1 -2 2 1 1 -4 -1 -4 3 -1 2 0 -1 0 0 -7 -2
24 10 -1 5 -1 -2 2 1 1 0 -2 2 2 3 5 6 8 5 2 -3 -3 2 -3 2 0 -5 2 4 -1 -0 -4 -0 -1 -3 -2 -0 2 3 0 -4 8 1 -0
10 -4 -4 -0 6 5 2 1 4 4 -2 2 1 2 1 1 4 2 -2 -5 -4 -7 -3 -1 2 2 1 -1 -4 -3 -3 3 3 -2 3 1 2 -2 0 1 1 4 -4
8 -19 -13 5 11 -4 -3 -1 -3 -2 3 -3 -2 0 -2 -3 -1 -2 -1 -0 -2 9 4 5 -2 -7 -5 -1 -2 -5 -3 -4 -3 -3 0 -0 0 1 -1 -1 1 2 -1
-12 1 1 2 3 -1 -4 4 1 -0 -5 -4 5 -2 -2 3 2 -2 0 -3 -6 -0 -2 -5 -0 -10 0 0 -2 2 -1 1 1 1 0 -1 -3 -4 -1 -1 -6 -7 1
-3 1 4 10 9 3 -1 -4 -1 -2 0 6 1 4 1 -0 -2 6 0 -0 0 -0 -5 1 -5 -1 -1 -0 0 -2 -4 -2 -2 -2 -3 -1 -1 -1 -1 0 3 3 2
-1 -2 1 7 2 0 -2 -0 -5 -0 -4 3 3 -0 -0 3 1 1 -3 1 -1 -2 2 -3 -5 -1 1 3 -1 -0 1 -2 -2 -2 -3 -3 -0 -1 -1 -1 -1 -1 1
-1 2 -6 2 -2 -2 -3 -1 1 4 1 2 -2 2 0 -6 4 -6 5 -4 5 -1 -2 -2 -0 -5 -3 -2 -0 -2 -2 -3 -3 -1 1 0 -1 -1 -2 0 0 -0 1
0 -1 5 -1 -7 -12 -2 5 10 -2 1 6 4 -4 6 5 -3 4 6 5 -4 2 -4 -6 -1 0 -1 -1 2 -3 -2 -1 -1 -0 -2 -1 0 -1 -2 -0 -0 0 0
2 1 -2 -4 -10 -5 -2 -4 -0 -1 -5 -6 4 0 1 4 3 -1 0 -3 2 -3 -4 3 -3 0 1 -3 -4 -3 -1 -0 -2 -2 -2 -0 -1 -1 0 -1 -1 -0 -0
-4 1 2 -1 -5 -4 4 3 2 -6 5 8 3 -3 5 -1 -0 -3 -2 5 -9 0 -5 4 -1 1 -6 -3 -6 -0 -2 -2 -3 -2 -2 -0 -1 -0 -1 -1 -0 0 -0
-6 -1 -2 -6 -7 -0 8 0 -3 2 1 -0 1 2 -7 -3 1 4 -1 -1 3 -3 1 5 0 -3 -3 -4 -2 -0 -0 -1 -1 -1 -2 -2 -2 -2 -2 -2 0 -1 -0
-1 10 3 2 -5 -6 -1 -0 -6 -15 -10 -5 -5 1 -0 3 -1 -1 -2 6 -4 -1 5 1 -2 -1 -4 -4 -2 1 -2 -1 -1 -1 -2 -3 -2 -3 -3 -1 -1 -0 -1
1 -1 1 2 1 10 6 6 10 3 1 -3 4 3 0 -8 -0 2 9 -3 1 3 1 -2 1 -2 -3 -2 -4 -2 -1 -1 -1 0 -3 -2 -3 -3 -3 0 -1 -1 0
-2 -2 -5 -1 0 -1 3 1 -1 2 1 -4 -0 4 -0 7 3 -1 4 -1 0 1 -1 -0 -0 -3 -3 -2 -3 -3 -2 0 0 -1 -2 -1 -2 -3 -3 -2 -1 -1 0
3 7 2 2 7 6 6 6 6 5 4 0 1 4 3 -2 4 4 3 5 -3 -1 -0 -2 -1 -3 -2 -2 -2 -1 -2 -2 0 0 -2 -0 -2 -2 -1 -1 -1 0 -1
2 -1 5 7 1 3 0 1 0 -0 -0 1 1 2 0 5 3 2 -2 -1 2 2 -4 -5 -3 -2 -0 -3 -2 0 0 0 -4 -1 0 -2 -1 -2 0 -1 -0 -1 -1
-1 1 1 -1 2 1 1 1 3 -3 1 5 -1 2 -1 1 1 1 1 2 -2 -4 -2 -0 2 -2 -3 -4 2 1 -1 -2 -2 -0 -0 -2 -1 -2 -0 -1 -0 0 1
-1 -0 1 1 -2 -1 2 1 1 2 3 4 2 0 1 0 0 0 1 -1 -3 -2 -0 -1 -2 -1 3 -1 1 1 -0 -1 -1 1 -1 -2 -2 -2 -1 -0 -0 1 1
Height
3067 3074 3081 3076 3089 3096 3104 3110 3116 3124 3128 3134 3140 3146 3151 3154 3158 3163 3167 3171 3174 3178 3180 3182 3183 3185 3186 3186 3186 3187 3187 3186 3186 3186 3187 3187 3186 3186 3186 3186 3185 3184 3183
3063 3070 3076 3081 3087 3092 3090 3089 3089 3112 3124 3130 3135 3141 3147 3151 3156 3160 3164 3168 3171 3174 3177 3179 3179 3180 3181 3181 3182 3182 3182 3181 3180 3180 3179 3180 3180 3180 3180 3181 3181 3180 3180
3060 3066 3073 3079 3086 3090 3093 3096 3092 3102 3116 3124 3130 3137 3142 3146 3151 3155 3160 3162 3167 3170 3172 3172 3172 3173 3175 3175 3175 3175 3176 3176 3177 3176 3174 3173 3173 3174 3174 3174 3175 3175 3175
3056 3064 3070 3076 3083 3090 3094 3096 3098 3097 3108 3115 3124 3128 3129 3140 3145 3149 3153 3156 3160 3163 3164 3164 3165 3167 3168 3169 3168 3169 3169 3170 3171 3167 3168 3168 3168 3167 3167 3169 3167 3166 3166
3055 3062 3068 3074 3079 3085 3090 3094 3098 3094 3085 3107 3116 3126 3129 3134 3138 3139 3146 3152 3155 3156 3157 3158 3160 3160 3162 3162 3160 3159 3163 3163 3164 3163 3162 3161 3161 3161 3161 3160 3161 3161 3159
3055 3062 3067 3072 3077 3082 3087 3093 3096 3096 3101 3108 3111 3115 3123 3129 3127 3137 3141 3147 3150 3152 3152 3154 3151 3149 3151 3153 3156 3158 3159 3159 3160 3158 3157 3154 3154 3156 3155 3154 3153 3153 3153
3054 3062 3067 3072 3076 3080 3085 3089 3094 3099 3104 3107 3105 3112 3118 3123 3128 3133 3139 3142 3144 3145 3147 3149 3150 3151 3152 3152 3153 3154 3154 3154 3153 3153 3151 3149 3149 3149 3149 3148 3147 3145 3144
3055 3060 3065 3071 3076 3080 3086 3090 3096 3099 3101 3105 3110 3114 3116 3122 3127 3131 3132 3136 3139 3140 3142 3144 3145 3146 3147 3147 3148 3147 3147 3147 3145 3146 3147 3147 3147 3145 3144 3143 3141 3140 3140
3051 3058 3063 3069 3075 3079 3085 3089 3093 3096 3100 3105 3109 3112 3116 3120 3124 3126 3128 3131 3134 3136 3138 3140 3140 3142 3142 3141 3142 3142 3141 3141 3142 3141 3142 3142 3142 3140 3140 3138 3136 3134 3132
3048 3052 3062 3069 3073 3078 3083 3087 3091 3093 3097 3101 3105 3109 3113 3116 3118 3121 3123 3126 3129 3131 3133 3134 3135 3136 3136 3136 3136 3136 3136 3137 3137 3137 3137 3136 3135 3135 3133 3132 3131 3130 3127
3051 3055 3061 3068 3072 3075 3081 3084 3087 3092 3095 3098 3101 3104 3108 3111 3114 3116 3120 3121 3124 3126 3127 3129 3128 3130 3131 3131 3130 3130 3130 3131 3131 3131 3131 3130 3129 3128 3127 3125 3124 3122 3120
3048 3057 3062 3066 3069 3072 3077 3082 3084 3088 3092 3096 3099 3101 3103 3107 3108 3112 3115 3115 3119 3121 3122 3123 3123 3125 3125 3125 3125 3124 3124 3125 3125 3124 3123 3122 3121 3120 3119 3117 3116 3115 3114
3051 3055 3059 3061 3064 3067 3072 3078 3082 3086 3089 3091 3094 3097 3099 3101 3104 3106 3108 3111 3113 3115 3117 3118 3118 3120 3119 3120 3118 3118 3118 3117 3117 3116 3115 3114 3113 3111 3109 3107 3106 3105 3104
3050 3053 3056 3056 3059 3064 3069 3075 3078 3083 3086 3089 3089 3091 3093 3095 3098 3102 3103 3106 3107 3109 3110 3112 3113 3113 3113 3113 3112 3111 3110 3110 3109 3108 3107 3105 3103 3101 3099 3098 3096 3095 3094
3047 3047 3051 3054 3057 3061 3066 3071 3074 3077 3080 3083 3084 3087 3088 3091 3094 3096 3098 3099 3100 3102 3104 3106 3106 3106 3107 3107 3106 3104 3103 3102 3101 3099 3098 3096 3094 3092 3090 3089 3087 3085 3084
3047 3047 3049 3051 3057 3061 3065 3068 3069 3072 3077 3079 3080 3082 3085 3085 3087 3090 3091 3092 3094 3097 3098 3099 3099 3099 3099 3100 3098 3098 3096 3095 3093 3092 3089 3087 3085 3083 3080 3078 3077 3076 3074
3046 3048 3050 3050 3055 3057 3061 3062 3064 3066 3073 3075 3074 3076 3078 3079 3081 3083 3085 3086 3088 3090 3091 3092 3092 3092 3091 3092 3091 3090 3088 3086 3085 3083 3081 3078 3075 3073 3070 3069 3067 3066 3065
3046 3046 3046 3046 3050 3054 3057 3059 3060 3063 3067 3068 3067 3070 3072 3073 3075 3077 3078 3080 3082 3083 3085 3085 3085 3085 3084 3084 3084 3083 3081 3079 3077 3074 3071 3068 3065 3061 3059 3058 3056 3055 3054
3046 3046 3046 3048 3051 3052 3052 3053 3055 3057 3059 3060 3062 3063 3066 3068 3070 3072 3073 3074 3075 3077 3079 3078 3078 3078 3077 3077 3076 3075 3073 3071 3068 3065 3061 3059 3055 3052 3049 3046 3045 3044 3045
3042 3043 3044 3045 3047 3047 3048 3049 3050 3052 3054 3055 3057 3060 3062 3063 3064 3067 3069 3067 3070 3072 3072 3072 3072 3071 3070 3068 3067 3066 3064 3062 3060 3056 3054 3051 3047 3042 3039 3036 3035 3035 3036
3037 3037 3038 3040 3042 3043 3043 3045 3045 3045 3048 3051 3053 3055 3057 3059 3060 3061 3062 3062 3065 3066 3066 3066 3065 3063 3062 3061 3060 3057 3056 3054 3051 3049 3046 3043 3039 3034 3030 3028 3026 3027 3028
3034 3035 3037 3039 3039 3040 3041 3041 3042 3042 3045 3047 3050 3049 3051 3053 3055 3056 3056 3058 3059 3060 3059 3059 3057 3056 3054 3054 3051 3049 3047 3045 3044 3040 3037 3035 3031 3027 3023 3021 3020 3021 3022
3033 3032 3033 3034 3036 3036 3037 3037 3038 3040 3042 3044 3045 3046 3048 3048 3049 3050 3051 3052 3053 3052 3051 3051 3050 3048 3046 3045 3043 3042 3039 3037 3036 3033 3030 3027 3024 3020 3018 3016 3015 3016 3016
3029 3029 3030 3029 3030 3031 3031 3033 3034 3035 3037 3038 3039 3041 3041 3043 3044 3045 3045 3045 3045 3044 3044 3043 3042 3040 3038 3037 3035 3033 3032 3029 3027 3026 3023 3019 3016 3014 3012 3010 3010 3010 3010
3028 3027 3026 3026 3026 3027 3028 3028 3029 3030 3031 3032 3033 3033 3035 3036 3037 3037 3037 3038 3037 3037 3036 3035 3034 3033 3032 3028 3026 3025 3024 3022 3020 3019 3016 3012 3009 3007 3006 3005 3004 3005 3006
3024 3024 3024 3024 3024 3023 3024 3024 3024 3024 3025 3025 3026 3026 3027 3028 3029 3029 3029 3029 3028 3027 3027 3026 3025 3024 3023 3020 3018 3017 3016 3015 3013 3012 3008 3006 3003 3001 3000 2999 2998 2998 2999